[[{"header":{"parameterUnit":"m.s-1","parameterCategory":1,"la1":30.2991,"la2":30.254,"lo1":-89.0895,"lo2":-89.0444,"dy":0.0017,"dx":0.0017,"nx":28,"ny":28,"refTime":"2023-09-21T03:00:00:Z","depth":0,"parameterNumber":2,"parameterNumberName":"U-component_of_WINDS"},"data":[0,0,0,0,0,0,0,0,0,0,0,0,0,0,0,0,0,0,0,0,0,0,0,0,0,0,0,0,0,0,0,0,0,0,0,0,0,0,0,0,0,0,0,0,0,0,0,0,0,0,0,0,0,0,0,0,0,0,-1.9355,-1.9355,0,-1.9384,-1.9384,-1.9385,-1.9227,-1.9223,-1.9218,-1.9214,-1.9259,-1.9265,-1.927,0,0,0,0,0,0,0,0,0,0,0,0,0,-1.918,-1.9184,-1.9355,-1.9355,-1.9356,-1.9384,-1.9384,-1.9385,-1.9228,-1.9223,-1.9217,-1.9212,-1.9258,-1.9264,-1.927,0,0,0,0,0,0,0,0,0,0,0,0,0,-1.9238,-1.9185,-1.9355,-1.9281,-1.9274,-1.9384,-1.9384,-1.9385,-1.9229,-1.9223,-1.9216,-1.9209,-1.9255,-1.9263,-1.9271,-1.9458,0,0,-1.9296,-1.93,0,0,0,0,0,0,0,0,-1.9234,-1.9244,-1.9291,-1.9286,-1.9279,-1.9295,-1.9339,-1.941,-1.9231,-1.9247,-1.9214,-1.9206,-1.9278,-1.9284,-1.9304,-1.946,-1.9462,-1.9297,-1.9302,-1.9306,-1.9308,0,0,0,0,0,0,0,-1.9231,-1.9242,-1.9367,-1.9292,-1.9285,-1.9251,-1.9252,-1.9352,-1.9301,-1.9245,-1.9234,-1.9238,-1.9273,-1.9297,-1.9304,-1.9463,-1.9297,-1.9304,-1.9309,-1.9312,-1.9778,-1.9785,0,0,0,0,0,0,-1.9234,-1.924,-1.9366,-1.9368,-1.9239,-1.926,-1.926,-1.9297,-1.9299,-1.9293,-1.9244,-1.9231,-1.9286,-1.9295,-1.9305,-1.9527,-1.9305,-1.9313,-1.9318,-1.9771,-1.978,-1.9788,0,0,0,0,0,0,-1.9231,-1.9247,-1.9365,-1.9301,-1.9313,-1.927,-1.9312,-1.9301,-1.9324,-1.9298,-1.929,-1.9277,-1.9281,-1.9294,-1.9421,-1.9526,-1.9317,-1.9324,-1.9762,-1.9773,-1.9784,-1.997,0,0,0,0,0,0,-1.9227,-1.9247,-1.9314,-1.9303,-1.9317,-1.9476,-1.9318,-1.9307,-1.9337,-1.932,-1.9327,-1.9322,-1.9277,-1.941,-1.9429,-1.9534,-1.9331,-1.9752,-1.9767,-1.978,-1.9955,-1.9986,-2.0014,0,0,0,0,0,-1.9221,-1.9368,-1.9318,-1.9334,-1.9399,-1.9482,-1.9491,-1.9432,-1.9346,-1.9416,-1.9399,-1.9321,-1.9511,-1.9424,-1.9445,-1.9553,-1.9745,-1.9763,-1.9779,-1.9941,-1.998,-2.0013,0,0,0,0,0,0,-1.9397,-1.9365,-1.9309,-1.9456,-1.9472,-1.9455,-1.9541,-1.9474,-1.952,-1.9503,-1.9432,-1.9435,-1.9576,-1.9577,-1.9481,-1.9736,-1.9614,-1.9636,-1.973,-1.9767,-1.9796,-1.9795,-1.9337,0,0,0,0,0,-1.9452,-1.9517,-1.9488,-1.9621,-1.9631,-1.9585,-1.9619,-1.9572,-1.9589,-1.9596,-1.9589,-1.9612,-1.9677,-1.9722,-1.978,-1.9953,-1.9955,-2.0038,-2.0068,-2.0092,-2.0113,-2.0209,-2.0246,-1.9843,-1.9843,-1.9842,0,0,-1.9569,-1.9559,-1.9605,-1.9656,-1.9663,-1.9737,-1.9592,-1.9677,-1.9733,-1.9611,-1.9729,-1.9726,-1.9747,-1.9899,-1.9966,-1.9904,-2.0224,-2.0113,-2.0133,-2.0141,-2.023,-2.0268,-2.0302,-1.9854,-1.9852,-1.985,0,0,-1.9818,-1.9816,-1.9927,-1.9936,-1.9947,-1.9915,-1.9943,-1.9936,-1.9927,-2.0044,-1.9954,-2.0023,-2.0135,-2.0155,-2.018,-2.0438,-2.0371,-2.046,-2.0616,-2.071,-2.0742,-2.077,-2.0866,-2.09,-2.048,-2.048,-2.0481,0,-1.9963,-2.0066,-1.9994,-2.0084,-2.0111,-1.9998,-2.0114,-2.0128,-2.0161,-2.0184,-2.0113,-2.0252,-2.0259,-2.0416,-2.0479,-2.0501,-2.0534,-2.046,-2.0742,-2.0769,-2.0794,-2.0885,-2.0921,-2.0491,-2.049,-2.0489,-2.0488,0,-2.0245,-2.0319,-2.0408,-2.0436,-2.0473,-2.0576,-2.0524,-2.0571,-2.0522,-2.05,-2.0623,-2.0626,-2.0684,-2.0718,-2.0672,-2.087,-2.0831,-2.0752,-2.0629,-2.0845,-2.0929,-2.0963,-2.0507,-2.0503,-2.05,-2.0497,0,0,-2.0609,-2.0594,-2.0629,-2.0641,-2.0646,-2.0704,-2.0804,-2.0855,-2.0899,-2.0925,-2.1011,-2.1108,-2.1035,-2.1064,-2.1019,-2.1101,-2.1311,-2.1013,-2.1012,-2.1071,-2.1534,-2.1596,-2.1637,-2.1264,-2.127,-2.1275,-2.1533,0,-2.0855,-2.1019,-2.0957,-2.1128,-2.1198,-2.1093,-2.118,-2.1196,-2.1178,-2.1239,-2.1221,-2.1293,-2.1189,-2.1206,-2.1282,-2.1269,-2.1404,-2.1249,-2.1349,-2.1353,-2.1349,-2.168,-2.1745,-2.1988,-2.1566,-2.1571,-2.1575,0,-2.1164,-2.1199,-2.1375,-2.1369,-2.1396,-2.1475,-2.1519,-2.1576,-2.1594,-2.1575,-2.1607,-2.1546,-2.1649,-2.1523,-2.1667,-2.1564,-2.1601,-2.1601,-2.1609,-2.1619,-2.148,-2.1703,-2.2064,-2.2102,-2.1626,-2.1622,-2.1618,0,-2.1416,-2.1506,-2.1624,-2.1638,-2.1632,-2.1691,-2.1693,-2.1702,-2.1738,-2.1779,-2.1802,-2.1856,-2.1887,-2.1932,-2.1889,-2.18,-2.2042,-2.1911,-2.2035,-2.2037,-2.2093,-2.2091,-2.2469,-2.2112,-2.2111,-2.2111,-2.211,0,-2.1699,-2.1813,-2.1737,-2.181,-2.1936,-2.1866,-2.1994,-2.1984,-2.1994,-2.2068,-2.1981,-2.2054,-2.199,-2.2058,-2.2026,-2.2153,-2.2167,-2.2159,-2.215,-2.2169,-2.217,-2.2195,-2.2178,-2.212,-2.2118,-2.2116,-2.2115,0,-2.2002,-2.1955,-2.2077,-2.2061,-2.206,-2.2154,-2.2143,-2.2213,-2.2188,-2.2283,-2.2301,-2.2265,-2.2341,-2.2301,-2.2381,-2.2359,-2.2525,-2.2491,-2.2518,-2.251,-2.2637,-2.2627,-2.3047,-2.3101,-2.2706,-2.271,-2.2713,0,-2.2187,-2.2271,-2.2263,-2.2304,-2.231,-2.2376,-2.2411,-2.2348,-2.2389,-2.2415,-2.2484,-2.2551,-2.2602,-2.2729,-2.2714,-2.2776,-2.2745,-2.2888,-2.2755,-2.2772,-2.2752,-2.2749,-2.2759,-2.2917,-2.2921,-2.2925,-2.2928,0,-2.2523,-2.2495,-2.2546,-2.259,-2.2633,-2.2667,-2.2693,-2.2733,-2.2669,-2.2721,-2.2795,-2.2834,-2.2914,-2.2984,-2.3038,-2.3045,-2.298,-2.2969,-2.3002,-2.3024,-2.3037,-2.3035,-2.2595,-2.2961,-2.2958,-2.2955,-2.2953,-2.2952,-2.2775,-2.2845,-2.2851,-2.2912,-2.2923,-2.295,-2.3016,-2.2998,-2.3057,-2.3113,-2.3073,-2.3162,-2.3181,-2.3245,-2.3262,-2.3334,-2.3278,-2.3324,-2.3337,-2.335,-2.3369,-2.3023,-2.3344,-2.3343,-2.3342,-2.3341,-2.334,0,-2.3108,-2.3106,-2.3162,-2.3199,-2.3249,-2.3175,-2.3201,-2.325,-2.3327,-2.3347,-2.3397,-2.3485,-2.3553,-2.3542,-2.3606,-2.3666,-2.3638,-2.3686,-2.3682,-2.3686,-2.3413,-2.338,-2.3708,-2.3707,-2.3707,-2.3707,-2.3707,-2.3707,-2.3287,-2.3404,-2.3378,-2.3502,-2.35,-2.3582,-2.3603,-2.363,-2.3646,-2.3745,-2.3799,-2.379,-2.38,-2.3863,-2.3924,-2.392,-2.3949,-2.4009,-2.3995,-2.3741,-2.3705,-2.367,-2.3639,-2.4015,-2.4016,-2.4262,-2.4264,-2.4266]},{"header":{"parameterUnit":"m.s-1","parameterCategory":1,"la1":30.2991,"la2":30.254,"lo1":-89.0895,"lo2":-89.0444,"dy":0.0017,"dx":0.0017,"nx":28,"ny":28,"refTime":"2023-09-21T03:00:00:Z","depth":0,"parameterNumber":3,"parameterNumberName":"V-component_of_WINDS"},"data":[0,0,0,0,0,0,0,0,0,0,0,0,0,0,0,0,0,0,0,0,0,0,0,0,0,0,0,0,0,0,0,0,0,0,0,0,0,0,0,0,0,0,0,0,0,0,0,0,0,0,0,0,0,0,0,0,0,0,-1.7239,-1.7241,0,-1.7438,-1.744,-1.7442,-1.7527,-1.7527,-1.7526,-1.7526,-1.7728,-1.7733,-1.7739,0,0,0,0,0,0,0,0,0,0,0,0,0,-1.6929,-1.6935,-1.7239,-1.7241,-1.7244,-1.7437,-1.744,-1.7443,-1.7527,-1.7527,-1.7526,-1.7526,-1.7726,-1.7733,-1.7739,0,0,0,0,0,0,0,0,0,0,0,0,0,-1.7089,-1.6936,-1.7238,-1.7309,-1.7318,-1.7437,-1.744,-1.7444,-1.7527,-1.7527,-1.7526,-1.7526,-1.7724,-1.7732,-1.774,-1.7803,0,0,-1.7766,-1.777,0,0,0,0,0,0,0,0,-1.708,-1.7101,-1.7296,-1.7305,-1.7314,-1.7457,-1.7405,-1.7564,-1.7527,-1.7448,-1.7526,-1.7525,-1.7638,-1.7653,-1.7692,-1.7813,-1.7822,-1.7767,-1.7772,-1.7776,-1.7778,0,0,0,0,0,0,0,-1.7069,-1.7093,-1.7318,-1.7299,-1.731,-1.733,-1.7352,-1.7436,-1.7543,-1.7454,-1.7461,-1.7484,-1.7643,-1.7683,-1.7697,-1.7824,-1.7767,-1.7774,-1.778,-1.7783,-1.8006,-1.8006,0,0,0,0,0,0,-1.7047,-1.7083,-1.7311,-1.7324,-1.7194,-1.7336,-1.7361,-1.7412,-1.7543,-1.7562,-1.7484,-1.7487,-1.7669,-1.7687,-1.7705,-1.7787,-1.7776,-1.7784,-1.7789,-1.8005,-1.8006,-1.8007,0,0,0,0,0,0,-1.704,-1.7066,-1.7303,-1.7205,-1.7237,-1.7342,-1.7398,-1.7416,-1.7457,-1.7565,-1.7584,-1.7506,-1.7669,-1.7693,-1.7778,-1.7795,-1.7788,-1.7796,-1.8004,-1.8005,-1.8006,-1.7951,0,0,0,0,0,0,-1.703,-1.7063,-1.7089,-1.7205,-1.7242,-1.7374,-1.7399,-1.742,-1.7472,-1.7477,-1.7591,-1.7609,-1.7671,-1.7765,-1.7786,-1.7806,-1.7802,-1.8003,-1.8004,-1.8006,-1.7952,-1.795,-1.7949,0,0,0,0,0,-1.7019,-1.7066,-1.709,-1.7117,-1.7276,-1.7375,-1.7396,-1.7467,-1.7473,-1.7499,-1.7568,-1.7605,-1.7789,-1.7773,-1.7798,-1.7821,-1.8002,-1.8004,-1.8006,-1.7952,-1.795,-1.7949,0,0,0,0,0,0,-1.6949,-1.7082,-1.7111,-1.7196,-1.7274,-1.7389,-1.7425,-1.7462,-1.7539,-1.7542,-1.7626,-1.765,-1.7728,-1.7783,-1.7763,-1.7888,-1.7899,-1.7905,-1.7849,-1.7848,-1.7847,-1.7832,-1.7809,0,0,0,0,0,-1.6943,-1.7013,-1.7125,-1.719,-1.7227,-1.7319,-1.7364,-1.7412,-1.7495,-1.7529,-1.7604,-1.7683,-1.7758,-1.7806,-1.7882,-1.796,-1.7985,-1.7987,-1.7986,-1.7984,-1.7989,-1.8033,-1.8035,-1.8012,-1.8012,-1.8012,0,0,-1.6933,-1.7014,-1.7053,-1.7178,-1.7243,-1.7312,-1.7346,-1.7418,-1.747,-1.7539,-1.7625,-1.7682,-1.7776,-1.7857,-1.7897,-1.7905,-1.8001,-1.7986,-1.7984,-1.799,-1.8035,-1.8037,-1.8039,-1.8014,-1.8013,-1.8013,0,0,-1.6949,-1.7018,-1.7079,-1.7143,-1.7242,-1.7302,-1.7316,-1.7426,-1.7467,-1.7554,-1.7607,-1.7669,-1.7798,-1.7862,-1.7911,-1.7949,-1.7986,-1.7971,-1.7963,-1.8005,-1.8007,-1.8009,-1.8022,-1.8026,-1.7976,-1.7976,-1.7976,0,-1.6923,-1.7031,-1.7105,-1.7174,-1.7227,-1.7292,-1.7354,-1.7413,-1.7531,-1.7565,-1.7573,-1.7735,-1.7802,-1.7899,-1.7908,-1.7946,-1.7964,-1.7959,-1.8001,-1.8004,-1.8007,-1.802,-1.8025,-1.7973,-1.7973,-1.7974,-1.7974,0,-1.6994,-1.7067,-1.7104,-1.7216,-1.7273,-1.7338,-1.7421,-1.7469,-1.7511,-1.757,-1.7657,-1.774,-1.7833,-1.7859,-1.7901,-1.7962,-1.7964,-1.7985,-1.7998,-1.8005,-1.8019,-1.8025,-1.797,-1.7971,-1.7971,-1.7972,0,0,-1.6973,-1.7124,-1.7136,-1.7187,-1.73,-1.7358,-1.7424,-1.7516,-1.7555,-1.7633,-1.7691,-1.7797,-1.7817,-1.7873,-1.7923,-1.7959,-1.7983,-1.7976,-1.798,-1.7974,-1.8054,-1.8037,-1.8042,-1.8008,-1.8009,-1.801,-1.8046,0,-1.7004,-1.7128,-1.7196,-1.729,-1.7358,-1.742,-1.7479,-1.7553,-1.7609,-1.7674,-1.7737,-1.781,-1.7832,-1.7865,-1.7904,-1.7972,-1.8,-1.797,-1.8062,-1.8064,-1.8037,-1.805,-1.8033,-1.8063,-1.8052,-1.8053,-1.8054,0,-1.7058,-1.7135,-1.7236,-1.734,-1.7371,-1.7422,-1.751,-1.7572,-1.7657,-1.7695,-1.7756,-1.7805,-1.7877,-1.7883,-1.7982,-1.796,-1.8001,-1.804,-1.8043,-1.8054,-1.8059,-1.8061,-1.8074,-1.8079,-1.8063,-1.8062,-1.8062,0,-1.7032,-1.7161,-1.7238,-1.728,-1.7403,-1.7437,-1.7489,-1.7574,-1.7624,-1.7701,-1.7734,-1.7817,-1.7863,-1.7926,-1.7995,-1.7994,-1.8088,-1.81,-1.8121,-1.8119,-1.8139,-1.8137,-1.8158,-1.8164,-1.8164,-1.8164,-1.8164,0,-1.706,-1.7119,-1.7228,-1.7275,-1.7343,-1.742,-1.7485,-1.7542,-1.7616,-1.7675,-1.7734,-1.7788,-1.7876,-1.7941,-1.7995,-1.8069,-1.8089,-1.8121,-1.8135,-1.8117,-1.8112,-1.8145,-1.8145,-1.8165,-1.8165,-1.8165,-1.8165,0,-1.7043,-1.7118,-1.7206,-1.7315,-1.7343,-1.7388,-1.7481,-1.7528,-1.7587,-1.7661,-1.7682,-1.7774,-1.7853,-1.7928,-1.8034,-1.807,-1.8144,-1.8162,-1.8115,-1.8123,-1.814,-1.8137,-1.8184,-1.8193,-1.8192,-1.8192,-1.8192,0,-1.7056,-1.7103,-1.7216,-1.726,-1.7311,-1.7381,-1.7432,-1.7508,-1.7559,-1.7658,-1.7694,-1.7777,-1.7847,-1.797,-1.8046,-1.8126,-1.8147,-1.8158,-1.816,-1.8139,-1.8147,-1.8144,-1.8148,-1.8156,-1.8156,-1.8155,-1.8155,0,-1.7071,-1.7106,-1.7177,-1.7261,-1.732,-1.739,-1.7461,-1.7494,-1.7583,-1.7637,-1.7718,-1.7773,-1.788,-1.7962,-1.8051,-1.8104,-1.8144,-1.8154,-1.8163,-1.8144,-1.8115,-1.8131,-1.8111,-1.8153,-1.8153,-1.8153,-1.8153,-1.8153,-1.707,-1.7114,-1.72,-1.7277,-1.7339,-1.7404,-1.7454,-1.7518,-1.7588,-1.7681,-1.7722,-1.7803,-1.7886,-1.801,-1.8062,-1.8127,-1.8137,-1.815,-1.8153,-1.8156,-1.8151,-1.8104,-1.8143,-1.8144,-1.8144,-1.8144,-1.8144,0,-1.7088,-1.7146,-1.7216,-1.7314,-1.7374,-1.7406,-1.7487,-1.7535,-1.7606,-1.768,-1.7748,-1.7841,-1.792,-1.8001,-1.8084,-1.812,-1.814,-1.8139,-1.8138,-1.8149,-1.8138,-1.8122,-1.8121,-1.8121,-1.8121,-1.8121,-1.8121,-1.8121,-1.7104,-1.7181,-1.7225,-1.7331,-1.7389,-1.747,-1.7513,-1.7573,-1.7632,-1.7733,-1.7799,-1.7851,-1.7928,-1.8017,-1.809,-1.8112,-1.814,-1.8133,-1.816,-1.8149,-1.815,-1.8151,-1.8137,-1.8139,-1.8139,-1.8166,-1.8166,-1.8167]}]]